Theta_e
330 330 330 330 330 332 330 329 330 330 329 329 327 323 321 321 319 318 318 316 314 313 313 312 310 310 310 310 309 308 306 304 304 304 303 301 301 304 311 310 309 310 312 316 315 316 318 319 320 322 323 326 328 332 334 333 333 333 331 326 326 326 327 327 325 324 323 322 322 321 321 321 321 321 321 321 321 321 322 322 321 321 322 324 326
328 330 332 331 331 331 328 328 328 325 325 325 322 320 319 319 318 318 318 316 315 314 312 312 311 311 310 309 308 307 307 306 304 304 302 302 301 301 311 310 308 308 311 313 313 316 318 319 319 319 321 323 324 326 328 329 331 332 334 328 326 326 326 326 326 325 324 323 322 321 320 321 320 320 320 320 321 320 320 321 321 321 321 322 324
325 327 330 329 327 325 324 324 323 322 322 321 321 320 319 318 318 316 316 316 314 314 313 312 310 311 311 309 309 307 307 307 306 305 304 303 303 301 303 311 311 309 309 311 312 314 315 315 317 318 320 321 321 321 322 323 326 329 332 333 333 332 328 326 327 327 326 324 323 321 321 321 320 320 319 320 320 320 319 319 320 320 320 320 321
321 320 321 321 320 319 320 321 321 321 321 321 320 320 319 317 317 317 315 314 313 313 313 312 311 310 310 311 309 308 308 307 306 305 304 303 303 302 301 304 310 310 310 311 312 312 312 312 314 314 317 317 318 319 319 320 322 324 327 330 332 333 333 330 326 328 327 326 324 323 322 321 321 321 320 320 320 320 320 319 318 319 320 319 320
318 317 315 316 316 317 316 316 317 318 320 321 320 320 319 318 317 315 315 314 314 313 313 314 311 310 310 310 309 309 308 307 305 305 304 303 302 301 301 301 302 308 310 311 312 312 311 312 313 314 316 315 316 317 318 319 320 321 322 324 327 330 332 332 331 331 329 327 325 324 323 322 322 321 320 320 320 319 319 319 319 319 319 319 319
316 315 315 314 314 313 313 313 314 315 315 316 317 318 318 317 315 316 314 315 314 313 311 312 310 309 309 308 308 307 307 307 305 304 303 302 301 301 300 300 299 299 302 309 311 310 310 311 312 314 313 313 315 317 318 319 319 319 320 321 322 324 327 328 329 330 329 328 326 325 324 323 323 322 321 320 320 319 319 319 319 319 319 319 319
314 312 311 311 310 309 309 310 311 312 312 312 313 311 311 308 307 308 312 308 308 309 309 308 307 307 307 307 307 307 306 306 303 301 300 301 300 300 300 299 299 299 300 299 303 307 311 310 311 312 312 313 314 315 316 317 318 319 319 320 320 320 321 322 323 326 329 328 328 328 327 325 324 323 322 321 320 319 319 319 319 319 320 320 319
310 310 308 307 307 306 306 307 308 308 308 308 309 308 307 304 303 304 305 304 304 304 304 303 304 305 305 305 304 304 304 301 300 301 301 300 299 299 299 299 299 298 301 298 298 303 309 310 310 311 311 311 313 315 315 316 316 316 316 317 318 319 319 320 320 321 322 324 326 327 327 327 327 324 323 322 321 320 319 319 319 319 319 319 319
304 305 305 304 304 304 304 305 306 306 306 306 306 305 304 303 302 303 303 301 301 301 301 301 302 303 303 303 303 304 302 299 300 300 302 299 298 299 298 298 299 302 299 299 299 299 303 308 310 309 311 311 310 313 314 316 316 316 316 317 318 318 318 318 319 319 319 319 320 322 324 326 326 326 325 323 322 323 321 320 320 320 319 319 319
303 303 303 302 302 302 304 305 305 305 305 305 305 304 304 303 301 302 300 299 298 298 298 298 300 302 301 302 302 300 299 299 299 300 299 297 296 298 298 297 299 299 299 299 299 299 299 302 305 306 305 308 308 310 312 313 313 314 317 317 317 317 316 316 316 317 318 318 319 319 320 322 324 326 326 326 325 324 322 322 321 320 320 320 320
302 302 302 302 301 301 301 302 303 303 302 302 302 302 303 302 302 300 300 298 298 297 296 297 299 299 301 302 301 300 299 297 299 300 298 297 298 300 300 298 298 298 299 299 298 298 298 298 297 297 298 305 307 307 309 311 310 312 313 315 317 317 317 316 315 315 315 316 317 318 318 319 320 321 323 325 326 327 328 322 322 321 320 321 321
300 300 300 300 300 300 300 300 299 299 299 298 298 298 299 301 300 299 295 295 294 294 293 294 296 297 297 301 299 299 298 297 298 298 297 297 299 298 298 296 295 295 296 296 296 297 297 296 296 296 297 300 305 306 307 308 307 309 312 314 315 315 316 315 315 315 315 315 315 316 316 317 318 318 319 320 322 325 326 327 325 322 321 322 322
297 298 298 298 297 297 296 295 295 295 295 295 296 296 297 298 300 298 295 292 291 292 292 293 293 293 295 298 298 297 296 292 296 296 297 298 297 297 296 294 294 293 293 294 294 295 296 295 294 294 295 296 297 302 305 306 306 307 310 311 312 313 314 315 315 315 315 315 315 316 316 317 318 319 319 319 319 321 323 325 326 327 324 323 322
294 295 295 295 294 294 294 293 292 292 293 293 293 294 293 294 295 295 295 292 290 291 292 292 289 288 289 293 295 295 295 291 291 296 295 298 297 297 296 294 293 292 292 293 293 293 294 293 293 292 294 294 295 296 297 298 299 306 307 308 310 314 314 315 315 315 315 315 316 316 316 317 317 318 319 319 319 319 320 321 323 326 326 326 322
292 293 293 292 292 292 292 292 291 291 290 290 291 290 291 290 291 291 290 291 291 292 290 291 287 288 289 290 289 292 294 288 290 293 290 296 295 295 296 294 291 290 292 293 292 291 293 292 291 291 292 293 293 295 296 298 297 303 305 305 306 311 313 315 315 314 313 312 312 313 314 315 315 316 317 318 319 320 320 320 321 322 324 326 326
291 291 291 291 291 290 290 290 290 290 289 289 289 289 290 289 289 289 290 287 287 288 290 289 289 288 284 286 286 285 281 282 287 289 289 293 292 293 295 292 289 290 289 292 291 291 292 290 289 290 291 292 292 294 296 295 298 300 300 300 303 308 310 312 312 311 311 312 312 312 313 313 314 315 315 316 317 318 319 320 320 321 321 322 324
290 290 290 290 290 290 290 289 289 290 289 289 288 288 289 289 289 288 288 287 286 286 287 289 288 289 287 283 282 281 281 284 286 286 289 289 288 289 291 289 288 289 288 291 289 289 290 289 289 289 290 291 292 293 294 294 294 296 296 298 302 305 305 309 309 308 309 309 309 307 308 309 311 313 314 314 315 316 317 317 318 320 321 321 321
290 290 290 290 289 290 289 289 288 289 289 289 288 288 288 288 289 287 287 288 287 285 285 287 288 288 288 287 286 283 282 285 283 280 287 287 286 288 288 287 288 288 288 288 288 288 289 288 288 289 290 291 291 292 293 293 294 294 295 300 303 303 303 304 307 307 307 308 308 308 307 307 306 308 310 312 313 314 315 316 316 318 320 320 321
289 289 289 289 289 288 288 288 288 288 288 288 288 287 288 288 288 288 287 288 287 285 285 285 285 287 288 287 287 286 285 285 282 282 279 282 286 287 287 288 287 287 288 288 288 288 288 288 288 288 289 290 291 291 291 291 294 295 303 303 304 303 303 303 302 303 305 307 308 308 308 308 307 307 308 309 310 312 313 314 315 315 316 318 320
288 288 288 288 288 287 287 287 287 287 287 287 287 287 287 287 287 287 287 287 286 285 284 285 284 284 286 285 285 285 285 284 284 281 280 278 280 285 286 287 287 287 288 287 288 288 288 287 288 288 288 288 290 288 289 289 289 290 296 302 303 303 302 301 299 299 301 303 306 307 307 308 308 308 308 309 309 310 311 313 314 314 315 316 318
288 288 287 287 287 287 286 286 286 286 287 287 286 286 286 286 285 286 285 286 286 285 284 284 284 283 283 283 283 283 283 283 283 282 279 278 278 279 281 283 283 284 285 287 287 288 288 288 288 288 288 288 289 287 287 287 287 290 299 299 301 302 301 299 298 298 298 299 302 304 305 307 308 309 308 309 309 309 309 310 312 313 314 315 316
287 287 287 287 286 286 285 285 285 285 286 285 285 285 285 285 285 285 285 284 284 285 284 284 284 284 283 283 282 281 280 281 280 280 280 280 278 278 280 280 279 281 284 283 285 286 286 288 288 288 288 288 287 286 286 286 287 291 294 297 299 299 299 298 298 299 298 298 299 300 303 305 307 308 309 309 309 309 309 310 310 311 313 314 314
285 285 286 286 286 286 285 284 285 285 285 284 284 284 284 284 285 284 284 284 284 283 284 284 283 282 282 282 281 282 281 280 279 279 279 277 277 277 279 279 279 279 280 283 284 285 285 286 286 287 287 288 287 287 286 286 289 292 294 296 296 296 296 297 297 297 297 298 299 300 301 302 303 305 307 308 308 309 309 310 310 311 311 312 315
284 284 284 285 285 284 284 284 284 284 284 284 284 284 284 284 283 283 283 283 283 283 282 282 282 282 281 281 281 282 282 281 281 281 280 278 279 277 277 278 278 279 282 282 283 282 283 284 284 286 287 287 287 287 287 288 288 292 291 292 294 295 296 297 298 296 297 297 298 299 301 301 301 302 303 305 307 308 309 309 309 310 311 311 311
283 283 283 283 284 283 283 283 282 283 283 283 283 283 283 283 283 282 282 281 281 282 281 281 281 280 280 281 281 281 282 282 282 281 280 280 279 276 277 277 277 277 278 280 279 281 283 282 284 284 284 285 287 287 287 287 286 290 292 289 293 293 294 294 295 295 296 296 297 298 299 300 300 300 302 303 305 307 307 307 308 308 309 310 310
283 282 283 283 283 283 283 282 282 282 282 282 282 282 282 282 282 281 281 281 281 280 280 280 280 280 281 279 280 280 280 282 280 281 280 279 278 277 276 277 277 276 278 277 278 278 278 282 282 283 283 283 285 285 285 285 285 289 291 289 289 292 292 292 293 294 295 296 297 297 297 296 298 299 300 302 303 305 306 306 306 307 307 308 308
282 283 283 283 282 282 282 281 281 281 281 281 282 281 281 281 281 281 280 280 280 280 279 279 281 279 279 279 280 279 280 280 280 280 280 280 279 278 277 275 275 276 276 277 277 277 278 280 281 282 282 283 283 283 284 284 286 290 289 286 285 289 291 292 294 295 296 296 296 296 296 296 296 298 298 299 300 301 303 304 305 305 305 306 306
283 282 282 282 282 281 281 281 281 280 280 280 279 279 279 279 279 279 278 281 278 278 278 278 278 278 278 278 278 278 279 279 280 279 278 279 279 278 277 276 274 273 275 274 275 276 279 278 280 281 281 282 283 283 285 285 284 288 286 284 284 285 288 290 292 294 294 294 293 294 294 295 295 296 296 296 297 297 298 299 300 301 301 302 302
283 282 281 280 280 280 280 280 280 280 279 279 278 278 278 278 278 277 277 277 278 277 278 277 277 277 277 277 277 278 277 278 277 278 278 278 279 278 278 277 276 273 272 272 274 274 276 278 277 280 282 282 282 283 282 281 284 284 283 282 282 282 285 288 290 292 292 293 293 293 293 294 294 295 295 296 296 297 298 299 299 300 301 301 302
282 282 281 280 279 280 278 278 278 278 278 277 277 277 277 278 277 277 276 276 276 277 277 277 276 277 277 277 276 277 277 277 277 277 277 277 277 277 277 276 276 274 273 272 273 276 275 277 278 279 280 280 281 281 281 281 285 284 281 281 281 281 285 286 288 289 290 292 292 292 293 293 293 294 295 296 296 297 298 298 298 299 300 301 303
281 280 279 278 278 278 277 277 278 277 276 276 276 276 276 276 277 277 276 276 275 275 276 277 277 276 275 275 275 276 276 275 276 276 276 277 277 277 276 277 276 275 274 273 272 275 276 275 277 277 278 278 280 280 280 281 282 282 280 280 280 283 284 283 285 286 287 288 289 289 291 292 292 293 294 294 295 296 297 298 298 298 299 300 301
278 278 278 277 277 277 277 277 276 276 275 275 275 275 275 275 275 276 275 275 274 274 274 275 277 277 275 275 275 275 275 275 275 276 275 276 276 277 276 276 275 275 275 274 273 273 276 275 276 276 277 278 278 278 278 279 280 282 279 279 279 282 280 279 282 284 285 286 288 290 291 292 292 293 293 293 294 295 295 296 296 297 298 298 299
278 277 277 276 276 276 276 276 275 275 275 275 275 274 274 274 274 274 274 274 274 274 274 274 275 275 275 274 274 275 275 275 275 275 275 275 275 276 276 276 275 275 274 273 272 272 275 276 276 276 276 277 276 276 276 276 277 277 280 278 278 278 278 278 279 282 284 285 287 288 290 290 291 291 291 292 292 293 294 295 296 296 296 297 298
277 277 276 276 275 276 275 275 275 274 274 274 273 273 273 273 273 276 276 273 273 273 273 273 273 276 275 273 274 274 275 274 274 274 275 274 274 274 274 275 274 274 274 274 273 272 271 275 274 275 275 276 274 276 275 275 275 277 276 277 277 277 278 278 278 278 282 284 286 286 287 289 290 291 291 290 292 293 294 295 294 294 294 295 296
276 276 275 275 275 275 274 274 274 273 274 273 273 273 273 272 272 272 274 272 272 272 272 273 273 273 273 273 273 273 276 273 273 274 274 274 274 274 273 274 273 273 274 274 273 272 272 272 274 273 274 274 274 274 275 275 276 276 275 275 276 277 278 277 277 278 282 284 285 286 287 287 287 288 289 289 290 290 291 292 293 293 293 293 294
275 275 275 274 275 274 274 273 273 272 273 273 273 273 273 272 272 272 272 272 272 272 272 272 272 273 272 272 273 273 273 272 272 273 273 273 273 273 272 273 273 273 273 274 273 273 272 271 272 272 273 273 273 274 275 275 275 274 275 275 276 275 276 277 277 277 280 283 284 284 285 285 286 287 287 288 289 289 290 291 291 292 292 292 292
274 274 274 273 273 273 273 273 273 272 272 272 273 272 272 272 272 272 271 271 272 272 272 273 275 273 272 272 272 272 272 272 272 272 273 272 272 272 272 272 272 273 273 273 272 273 271 270 271 272 273 273 273 273 274 273 273 273 274 274 274 274 275 276 277 278 280 282 282 282 283 284 284 285 287 287 288 288 289 289 290 290 291 292 291
273 273 273 273 272 272 272 272 272 272 272 272 272 271 271 271 271 271 271 272 272 272 272 273 273 273 272 272 272 272 272 272 272 272 272 271 271 272 271 272 272 272 272 272 272 272 271 271 271 270 272 271 271 272 273 273 272 272 272 273 274 274 274 274 275 277 277 278 277 278 280 281 282 284 285 286 287 287 287 288 288 288 288 288 288
273 272 272 272 272 271 272 271 272 272 271 272 271 271 271 271 271 271 272 272 273 273 273 273 273 273 273 273 273 273 272 272 272 272 271 271 272 271 272 272 272 272 271 271 271 271 271 271 271 271 271 272 272 270 272 273 273 272 271 271 271 273 274 274 274 275 276 277 279 281 281 281 282 281 283 284 285 286 286 286 286 286 285 285 286
272 272 272 272 272 271 271 271 271 271 271 271 271 271 271 271 272 272 272 272 273 273 273 273 273 273 273 273 273 273 273 273 272 272 272 272 272 272 273 273 273 272 272 272 271 271 271 270 270 270 270 270 271 272 273 273 272 272 272 272 270 271 272 274 274 274 275 276 275 276 279 280 280 281 283 283 284 284 284 284 283 283 283 285 286
273 272 272 272 271 271 271 271 271 271 271 271 271 270 270 271 273 273 273 272 272 272 272 273 273 273 273 273 273 273 274 277 278 278 277 277 274 271 271 271 271 272 272 271 271 271 270 270 269 270 270 269 270 270 270 270 270 270 272 273 271 272 273 273 274 275 275 275 275 276 276 277 277 277 278 278 278 281 280 282 282 282 283 285 287
272 272 270 271 270 270 270 270 270 271 270 271 272 275 274 272 273 274 274 274 274 273 272 272 272 273 273 273 273 277 277 277 277 277 277 277 277 275 273 273 272 272 272 271 271 271 270 269 269 269 268 268 269 270 270 271 272 273 272 272 271 272 273 272 273 274 276 275 275 274 276 278 278 277 277 277 278 279 278 278 278 281 284 286 287
269 270 270 270 269 270 270 269 269 270 271 271 275 276 276 277 276 274 273 273 274 273 273 272 271 271 272 272 272 274 275 276 274 276 276 276 276 276 277 277 276 274 272 271 271 271 270 269 270 269 269 269 270 271 271 272 272 272 272 273 273 272 271 270 269 273 276 276 275 274 275 278 278 276 276 276 277 277 278 278 282 284 284 285 286
270 268 269 269 269 269 269 269 268 269 269 274 276 276 276 277 277 275 274 274 273 273 273 272 271 271 271 271 272 272 272 272 272 272 273 275 275 275 276 276 276 276 276 273 271 270 270 269 269 270 270 270 270 272 272 272 272 272 273 273 273 272 272 271 272 271 275 277 275 274 274 277 277 276 275 276 276 277 278 281 283 284 284 285 285
270 269 269 269 268 268 268 268 267 268 268 274 276 276 276 277 277 276 275 274 273 273 273 273 272 271 271 271 270 271 271 273 272 271 270 270 273 274 275 275 275 276 276 277 277 275 274 272 271 271 271 272 271 272 273 273 274 272 272 272 273 273 273 273 273 274 275 278 276 274 273 276 276 274 274 275 276 276 277 280 282 283 284 285 285
270 269 267 267 267 266 267 267 267 267 267 272 275 276 276 276 277 276 274 273 273 273 272 272 272 271 270 269 269 269 269 269 270 270 270 270 270 271 272 272 273 274 276 277 277 278 277 274 273 271 273 274 272 273 274 275 273 272 272 272 273 273 273 273 275 275 277 278 275 274 272 273 275 274 273 275 276 276 276 279 282 283 284 284 285
269 267 267 266 265 265 265 265 264 266 267 272 274 275 276 276 276 276 274 273 272 272 272 272 271 270 269 270 269 269 269 269 270 271 271 271 272 272 272 273 273 274 274 274 274 274 274 274 274 274 274 275 275 275 275 275 275 275 275 274 274 275 275 276 276 277 277 278 276 274 269 273 275 273 273 274 276 275 276 279 281 282 283 283 284
266 266 266 266 266 265 265 263 263 264 265 272 274 275 276 276 276 274 272 271 271 271 270 270 270 270 269 269 269 269 269 269 272 275 275 274 274 273 273 274 274 274 275 277 279 279 278 277 276 276 276 277 279 278 278 278 278 278 277 277 277 276 274 273 271 273 272 275 275 274 272 272 275 273 273 275 275 274 275 275 279 281 282 283 284
268 267 266 265 265 264 263 263 263 263 263 269 273 274 274 275 275 271 270 270 270 270 270 271 271 271 271 270 270 270 271 271 274 276 277 277 274 274 274 273 273 274 274 276 278 279 279 280 280 280 281 281 280 281 281 281 278 277 274 272 271 272 270 269 269 270 271 274 276 276 274 272 273 273 272 273 274 274 274 275 275 279 281 282 283
267 266 265 264 263 264 263 263 263 262 263 266 271 273 274 275 274 271 270 269 269 269 269 270 271 271 272 273 273 272 272 272 275 277 278 277 274 274 274 273 273 272 273 274 274 274 277 278 278 278 278 278 278 278 278 278 278 277 272 269 270 271 269 269 269 271 273 274 275 276 273 271 272 273 271 273 273 273 274 274 275 276 279 279 280
265 265 265 264 262 262 262 262 266 264 262 265 270 272 274 274 273 271 269 267 268 269 269 270 271 271 271 272 273 274 274 275 277 277 278 277 275 274 273 272 271 270 271 271 271 272 273 272 272 272 272 273 272 271 271 276 276 275 272 271 271 270 269 270 270 271 270 271 275 276 271 271 271 272 272 270 269 272 275 274 274 274 274 274 275
Wind_Speed
1 4 4 1 2 4 4 4 2 2 3 4 4 5 5 5 4 4 5 6 4 3 3 3 3 3 2 2 2 1 1 2 1 1 1 1 4 4 4 4 4 5 7 8 8 9 10 10 10 11 11 12 12 13 14 13 13 14 11 4 5 5 7 5 3 3 2 1 2 2 3 3 4 4 5 4 4 5 7 7 5 6 7 5 5
4 2 2 2 3 3 3 3 4 3 2 3 3 3 4 4 4 4 5 4 4 3 2 2 2 2 2 2 3 2 1 1 1 1 2 1 2 2 4 3 2 4 6 8 9 10 11 11 11 10 10 11 11 12 13 13 14 13 15 7 5 6 7 1 4 6 4 4 4 4 2 3 2 2 3 3 4 4 4 7 8 6 5 6 4
7 6 7 6 8 8 7 6 6 6 6 6 6 6 5 5 5 5 4 5 3 0 3 1 3 2 1 1 2 2 2 2 1 1 3 3 4 1 1 2 2 2 5 7 9 10 12 12 13 13 12 12 12 12 12 12 12 13 13 13 12 12 8 6 6 8 7 6 6 4 4 2 2 2 2 3 4 4 4 4 6 7 5 5 6
9 9 7 7 7 7 6 6 6 5 5 5 6 5 5 3 4 4 3 3 3 3 1 2 1 2 1 0 1 2 1 1 2 1 3 3 4 5 2 0 0 3 3 7 9 11 13 13 13 12 13 13 13 14 13 12 11 12 13 14 13 13 15 13 8 9 9 9 7 6 5 4 4 4 3 3 3 5 6 5 4 6 8 6 6
8 9 9 8 6 7 6 6 5 5 5 5 5 5 5 4 2 2 3 2 3 3 3 3 1 1 1 1 2 1 0 1 2 4 5 4 6 6 7 5 3 4 5 6 8 12 13 14 13 13 13 14 14 13 13 13 13 12 12 13 13 13 13 15 15 17 9 8 8 7 6 5 5 4 4 4 4 5 6 8 7 7 7 7 7
8 9 8 8 7 7 8 8 6 6 7 7 6 6 5 6 6 5 3 4 3 4 5 6 6 7 6 3 5 4 6 5 4 7 6 5 6 6 7 8 7 6 5 5 7 9 15 15 15 14 15 15 15 15 14 14 13 13 13 13 13 14 14 14 14 13 10 7 8 7 7 6 6 6 5 5 4 4 6 6 7 8 9 9 9
9 8 9 9 9 9 8 7 7 6 8 7 7 8 8 8 7 7 6 7 7 6 7 6 5 6 5 5 5 5 5 6 6 6 5 6 7 6 7 6 6 7 6 4 5 7 10 13 14 14 14 16 16 15 15 15 14 14 14 14 14 14 14 14 14 14 11 10 10 10 10 10 9 8 7 6 5 5 6 7 8 9 10 10 10
9 8 9 8 8 8 8 7 7 7 8 8 8 8 6 7 7 6 6 7 7 8 7 7 6 6 5 4 3 3 5 6 6 6 6 7 6 5 7 7 7 7 6 7 7 7 13 12 15 15 13 14 16 16 15 15 15 15 14 14 14 14 14 14 14 13 12 11 10 11 11 12 12 11 9 9 9 8 6 7 10 10 9 9 11
10 10 9 9 8 8 7 7 8 10 7 8 8 6 6 6 8 8 7 6 7 7 7 7 6 5 4 4 3 6 6 5 6 5 6 5 4 5 5 5 5 6 6 6 7 7 9 15 14 16 11 12 18 17 16 16 16 15 14 14 14 14 14 15 15 14 14 12 11 12 12 12 10 12 13 11 12 14 12 11 12 11 11 9 11
10 9 9 8 7 7 7 8 7 8 7 7 6 6 6 5 6 8 9 8 7 7 7 7 5 5 4 2 5 7 5 5 4 4 7 4 4 5 5 5 5 5 6 5 5 6 6 10 13 12 14 16 19 18 18 17 17 16 15 16 16 15 14 15 14 15 15 15 14 13 13 13 14 10 11 15 15 16 12 13 14 10 12 12 12
10 9 9 8 8 8 8 8 7 7 8 8 8 7 6 7 7 7 7 8 7 7 6 6 6 5 5 0 6 5 5 3 5 6 5 4 6 6 8 8 7 6 6 6 7 6 6 7 7 7 8 13 16 19 18 18 17 16 17 18 18 16 16 15 14 14 15 15 15 15 15 15 15 16 16 14 13 15 18 14 16 15 12 14 14
8 8 8 8 8 8 9 8 8 8 9 10 9 8 8 6 8 8 9 9 10 9 9 7 5 3 4 5 5 5 4 6 6 6 5 5 6 7 7 7 8 8 7 7 8 6 6 7 7 7 7 8 12 13 16 18 16 18 18 17 17 16 16 16 16 15 15 15 15 15 15 15 16 16 16 16 16 17 16 17 17 15 15 15 15
9 8 9 9 9 8 9 9 8 8 9 9 8 9 9 9 5 7 9 10 10 9 11 5 6 7 7 5 5 4 8 9 5 5 5 7 7 7 6 7 7 8 7 6 7 7 5 8 8 8 8 7 8 10 11 13 11 17 17 17 17 17 16 16 16 16 15 15 15 15 15 15 16 16 16 16 17 17 17 17 17 20 18 16 16
10 10 10 9 9 9 9 9 9 8 9 9 11 11 13 11 8 7 6 8 7 8 10 6 7 4 3 2 3 3 4 7 9 5 7 5 6 5 5 7 8 7 7 5 7 7 5 8 8 8 7 7 7 7 7 7 8 12 17 16 18 17 17 17 16 16 16 16 16 17 16 16 16 16 17 17 17 17 17 18 18 17 18 19 19
10 9 9 9 8 8 8 8 8 8 9 10 10 12 10 12 11 9 6 4 4 6 11 10 6 5 2 3 3 2 3 9 7 7 9 5 6 4 6 7 9 8 7 6 7 8 5 8 9 8 7 7 7 6 6 7 8 10 13 14 17 18 18 17 17 17 17 17 17 17 17 18 17 17 17 18 17 18 18 18 19 19 19 18 19
9 9 8 9 8 8 8 8 9 9 9 10 12 12 11 11 10 9 5 7 6 8 8 10 9 8 6 2 3 2 3 5 8 5 6 7 8 8 6 7 7 9 9 6 8 8 6 8 9 9 8 7 7 6 6 6 8 9 9 10 11 16 18 18 18 19 19 19 18 18 18 18 18 18 18 18 18 18 18 19 19 19 19 19 19
9 9 8 9 9 9 9 9 10 10 9 9 9 8 8 7 8 8 9 5 7 6 8 9 11 8 4 4 5 5 2 4 5 5 9 8 9 9 5 7 9 9 7 6 8 7 6 8 9 8 8 7 7 6 6 6 7 5 5 8 10 13 16 18 19 20 20 20 19 20 20 20 20 19 19 19 19 19 19 19 19 19 19 19 19
9 10 10 9 10 9 9 9 9 9 8 8 7 8 9 9 8 7 9 9 5 8 8 8 7 10 8 5 3 1 4 5 4 5 6 3 6 8 5 9 9 7 6 6 7 7 6 7 7 8 8 8 7 7 5 8 7 8 5 4 12 12 14 17 19 21 21 21 21 22 23 23 21 21 20 20 20 20 19 19 19 19 19 19 19
9 9 9 9 8 8 8 8 8 8 7 8 9 8 7 7 7 8 7 7 7 8 8 7 6 7 8 7 7 5 3 3 3 4 5 2 4 6 7 9 8 7 5 7 7 6 6 6 6 7 8 8 7 5 8 8 10 11 9 11 14 15 17 18 19 20 21 21 22 23 24 24 23 21 21 20 20 20 20 19 19 19 19 20 20
9 8 8 8 8 8 8 8 8 7 7 7 7 6 7 7 8 7 7 7 8 7 5 6 7 6 7 7 7 7 6 5 6 4 4 8 7 3 3 7 7 6 8 8 7 8 9 8 6 6 7 8 7 6 7 8 8 8 7 15 16 17 18 20 21 22 22 22 23 24 25 25 24 23 21 21 21 21 20 20 20 19 19 19 20
8 8 8 8 8 8 8 8 8 7 6 7 6 7 7 7 9 9 7 7 7 6 6 6 6 5 5 6 4 6 4 4 5 5 3 4 5 7 10 5 4 4 8 6 8 9 8 8 6 5 6 7 5 5 6 7 8 5 6 14 17 20 22 24 24 23 23 24 25 26 26 25 24 24 23 22 22 21 21 20 20 20 20 19 19
7 7 7 7 7 7 7 8 7 7 7 6 6 7 7 6 6 6 7 7 6 7 6 6 5 6 5 4 6 6 5 5 4 8 4 2 5 10 8 12 12 5 5 6 9 10 8 8 6 5 5 6 5 5 4 5 7 4 6 16 21 22 23 24 24 23 23 24 24 24 24 24 23 24 24 24 23 23 22 21 21 21 21 20 20
6 7 7 6 7 6 7 7 6 6 7 6 6 6 6 6 6 6 7 7 6 7 7 6 6 7 7 6 6 5 3 3 4 5 3 3 5 5 7 6 8 13 4 7 7 8 7 8 7 5 5 6 6 6 5 5 7 7 13 12 14 20 22 22 23 23 23 24 23 23 24 23 24 24 24 24 24 23 23 22 21 21 21 21 21
6 6 7 6 6 6 5 6 7 7 7 6 6 5 5 6 6 7 7 6 6 6 6 6 6 6 5 6 6 5 5 4 4 4 5 5 4 7 7 7 5 3 7 7 7 5 7 8 6 5 6 6 6 5 6 7 7 11 10 11 15 19 21 23 24 23 23 23 23 23 23 23 23 24 24 24 24 24 24 23 23 22 21 21 21
6 7 5 5 5 6 6 7 7 7 5 5 5 6 5 6 6 6 6 6 6 5 6 5 5 5 6 5 5 5 5 4 5 4 5 4 5 6 5 4 8 9 4 5 4 4 8 4 6 6 7 8 6 6 7 7 7 11 15 11 14 16 20 22 23 23 23 23 23 23 23 24 24 25 25 25 25 25 24 24 23 23 23 22 22
5 6 4 5 6 6 6 6 6 5 5 5 5 5 5 6 5 5 5 5 5 5 4 4 4 4 3 4 5 5 5 5 4 5 5 5 5 5 8 5 4 8 6 3 4 5 3 3 5 5 7 6 6 8 8 9 8 13 17 12 11 16 19 22 23 24 24 24 24 24 24 24 26 26 26 26 26 25 25 24 24 24 24 24 24
6 4 4 5 5 6 5 6 5 5 5 6 6 5 5 5 5 4 4 4 4 4 4 4 4 4 4 4 5 5 6 4 5 5 4 5 4 5 6 11 8 5 8 7 6 5 9 9 4 6 3 4 6 5 7 6 8 13 15 10 8 12 18 23 25 24 24 24 24 24 25 26 26 26 26 25 26 26 25 25 25 25 25 25 24
5 4 4 4 4 5 5 5 4 4 5 4 4 4 4 5 4 4 5 3 4 2 3 4 4 4 4 4 4 4 4 5 5 5 5 5 5 5 5 4 7 11 8 7 5 7 6 7 9 3 6 7 5 6 6 7 6 13 13 8 7 8 15 21 23 25 27 27 27 26 26 25 25 26 26 26 26 25 25 25 25 25 25 25 24
5 4 5 4 4 4 4 4 4 4 4 4 4 4 4 4 3 5 5 4 4 3 3 4 4 4 4 4 4 5 4 4 4 5 5 4 4 4 4 3 4 5 7 8 9 7 5 4 6 6 8 13 13 8 8 7 9 12 7 7 9 9 15 22 24 23 24 27 27 26 25 25 25 25 25 25 25 25 25 26 27 26 26 25 26
4 4 4 4 4 4 4 4 4 4 4 4 4 4 4 5 4 4 4 4 4 4 3 4 3 3 3 4 3 4 3 4 4 4 4 4 4 4 4 4 4 4 4 8 12 7 7 4 2 7 9 8 9 13 11 11 13 13 9 9 10 9 20 23 23 22 22 22 24 25 26 26 25 25 25 26 26 26 26 27 27 27 27 26 27
5 4 4 4 3 4 4 4 4 4 4 4 4 4 4 4 4 5 4 4 4 3 3 3 2 3 3 3 3 3 3 3 3 4 4 4 5 4 4 3 4 4 5 5 10 7 2 7 6 3 8 9 7 10 11 10 11 15 13 13 11 18 24 16 22 22 23 24 24 24 24 27 26 26 26 26 26 26 26 27 27 26 27 27 27
4 4 4 4 4 4 4 4 4 4 4 4 4 4 4 4 3 4 3 3 3 3 3 3 2 1 2 3 3 3 3 2 3 4 4 5 4 5 4 4 4 4 4 5 8 15 12 7 10 6 4 9 8 8 10 8 8 16 14 12 14 19 13 12 17 22 24 24 24 23 24 23 24 25 25 25 26 26 27 26 27 27 27 27 27
4 4 4 3 3 4 4 4 4 4 4 4 3 3 3 3 3 2 2 2 3 3 2 3 2 1 2 2 4 4 3 2 3 4 5 5 4 5 4 5 5 3 4 5 9 13 14 7 6 7 4 8 9 4 7 10 10 10 10 11 11 12 12 11 12 18 24 25 25 24 24 25 26 25 26 27 27 27 27 27 27 26 26 26 26
5 5 4 3 3 4 4 4 4 4 4 3 3 3 3 3 3 1 1 1 2 2 3 3 3 2 2 3 4 4 3 2 4 4 5 5 5 5 5 4 5 5 4 5 8 9 15 14 9 4 5 5 10 4 7 11 11 8 11 11 9 9 10 10 11 12 22 23 25 25 26 25 24 24 24 24 25 26 26 26 25 25 25 25 25
4 4 4 4 3 3 4 4 4 3 2 2 2 2 1 1 1 2 2 2 2 2 3 3 3 3 2 3 4 4 3 3 4 5 4 5 4 4 5 4 6 6 4 4 6 10 12 14 12 9 6 4 8 10 9 8 9 9 10 10 10 10 9 11 11 9 16 23 25 25 25 25 25 25 25 25 24 25 26 26 26 26 26 26 26
5 4 4 3 3 3 3 3 3 2 1 1 1 1 1 0 1 1 2 2 2 2 2 3 3 2 3 3 4 4 4 4 4 5 5 4 4 4 5 4 4 6 5 4 4 7 9 13 14 9 7 8 8 9 7 8 9 9 8 9 9 10 11 10 10 9 13 23 23 23 24 24 25 25 25 24 23 23 23 25 25 26 26 26 27
4 4 4 3 1 3 2 2 2 1 2 1 0 0 1 1 1 1 2 2 2 3 3 3 4 3 3 3 4 4 4 4 4 4 5 4 5 4 5 5 5 5 5 5 6 6 9 12 14 10 8 7 7 9 8 9 10 8 8 9 10 10 10 9 8 9 16 21 20 21 21 22 23 23 25 25 25 24 24 24 25 25 25 25 26
4 3 3 3 2 2 3 1 2 1 1 1 0 0 0 0 1 1 1 2 2 3 3 3 3 3 3 4 4 4 4 4 5 4 4 4 3 4 5 5 5 5 6 6 6 7 8 10 11 13 9 8 9 8 8 9 10 11 10 9 8 7 8 10 9 8 7 7 7 9 12 14 16 24 24 24 25 25 25 25 25 26 27 27 28
4 4 3 2 2 2 0 2 1 1 0 0 1 1 0 0 1 2 2 2 2 3 3 3 3 3 4 4 4 4 4 4 5 5 4 3 4 5 4 5 5 5 6 6 6 8 10 11 11 11 13 11 9 12 10 8 10 9 11 12 10 7 7 9 11 7 7 9 10 16 15 16 20 18 20 24 24 25 26 26 26 27 27 28 27
4 4 4 4 1 3 1 1 1 1 0 1 1 1 0 1 2 3 3 3 3 3 3 4 3 3 4 4 4 4 5 5 5 4 3 5 5 5 4 5 6 9 9 8 9 9 10 11 11 13 12 12 11 10 10 11 10 7 6 9 13 13 11 9 8 10 9 9 10 7 8 11 11 15 20 21 21 23 25 24 25 26 26 25 25
4 3 3 3 2 3 2 2 0 1 2 2 1 1 1 2 2 2 2 3 3 3 4 4 4 3 4 4 4 4 5 8 12 11 10 11 6 6 4 4 5 7 9 8 8 10 10 10 12 11 12 13 11 12 13 12 12 13 12 10 12 11 11 11 9 8 8 11 10 9 7 7 11 10 10 9 9 15 16 20 19 23 24 24 23
4 4 3 2 2 2 2 2 2 2 2 2 3 4 3 2 2 2 3 4 4 3 4 4 4 4 4 4 4 8 12 12 12 12 12 12 12 9 7 6 6 6 6 7 7 7 9 10 11 12 13 12 12 12 13 14 14 14 13 11 12 12 12 13 11 6 7 8 11 11 9 7 10 11 9 10 8 9 9 10 11 16 21 25 25
4 3 3 3 2 2 2 2 3 3 3 3 7 6 5 5 4 3 3 4 4 5 5 4 4 4 4 4 4 5 6 7 7 11 12 12 13 14 15 14 12 9 7 8 8 8 8 9 10 10 10 14 14 14 16 14 13 14 14 13 13 12 11 13 15 9 3 8 11 13 13 8 10 12 10 9 9 9 9 9 21 25 25 25 25
5 4 3 3 2 3 3 3 3 4 3 6 8 7 6 6 5 4 4 4 4 5 5 5 4 4 4 4 3 3 3 4 5 4 6 11 13 13 14 14 14 14 14 10 10 9 9 10 11 10 10 11 12 10 14 14 14 13 13 13 13 12 14 14 13 13 9 8 12 12 16 9 9 10 10 8 9 8 10 18 25 24 25 25 26
4 4 5 4 3 3 3 4 4 4 3 6 7 7 6 6 6 5 4 4 5 5 6 5 5 4 4 5 3 3 3 9 7 5 5 5 8 14 15 16 16 17 18 20 19 14 11 12 12 13 10 10 14 15 11 13 13 15 15 14 12 15 12 15 13 16 12 9 11 11 14 10 8 11 10 7 7 8 9 14 22 24 26 26 25
5 4 4 4 3 3 4 4 4 3 3 6 7 7 6 6 7 6 4 5 5 6 6 6 5 4 3 4 5 5 3 3 4 6 6 6 7 7 9 9 9 13 17 21 22 24 20 14 14 15 14 11 13 15 15 14 15 15 14 15 14 14 14 14 15 13 11 9 10 10 13 10 8 11 11 7 6 8 8 14 24 25 25 24 24
7 6 6 5 4 4 3 3 3 4 4 7 8 7 7 7 7 6 3 4 4 5 5 5 4 4 4 5 5 5 4 4 5 8 8 7 8 9 10 10 10 10 9 9 11 12 12 12 13 15 16 15 16 16 15 14 15 15 15 17 17 16 16 16 14 11 10 5 6 6 13 12 8 11 10 8 7 8 7 13 21 23 24 25 25
4 4 4 4 4 4 4 3 4 5 5 9 8 7 7 6 6 3 3 4 4 4 4 5 5 4 4 4 4 5 5 6 9 15 13 10 10 11 11 10 10 10 11 11 18 18 15 12 11 11 12 13 17 16 16 14 12 11 11 11 11 11 12 12 13 9 9 5 6 8 10 11 8 11 11 8 8 9 9 9 15 22 24 24 23
6 6 6 5 4 5 4 4 5 5 4 6 8 8 7 7 5 1 3 3 4 5 6 5 5 4 4 4 4 6 7 7 11 15 16 16 10 10 10 12 12 11 9 8 14 20 22 25 27 28 29 29 29 29 29 32 24 21 16 15 14 10 13 14 15 11 9 5 4 5 10 13 8 9 11 8 9 9 9 9 8 14 20 19 20
7 6 5 4 4 5 5 6 6 5 6 7 9 8 8 8 7 4 4 4 5 5 4 5 5 5 6 11 10 8 9 9 13 16 17 13 9 10 12 11 11 10 10 9 9 13 21 23 23 23 24 25 27 29 29 28 28 21 13 14 13 11 13 11 14 10 9 5 7 6 9 10 9 8 11 9 10 6 7 6 8 8 12 15 22
5 5 5 6 4 4 5 5 7 7 6 7 9 9 9 9 6 3 3 3 5 6 5 4 5 5 6 7 12 11 10 11 16 16 17 14 9 8 8 11 12 12 10 11 12 12 9 9 10 12 14 17 15 13 14 24 24 21 13 13 11 10 12 12 12 12 11 4 3 0 7 8 9 8 6 10 10 5 5 5 5 7 9 8 10
Wind_Direction
142 202 111 241 186 165 141 127 110 88 96 140 129 126 126 124 116 105 93 76 60 29 83 57 63 39 49 13 352 24 30 52 74 329 330 103 145 145 113 92 34 20 17 15 17 16 13 12 8 8 360 357 358 358 3 5 3 5 342 295 306 322 341 169 170 211 212 134 254 292 306 350 350 6 355 347 356 358 338 335 343 342 335 338 360
24 36 115 128 89 79 64 65 63 45 75 78 84 82 89 87 94 100 94 92 76 13 84 103 81 55 15 18 342 340 27 39 13 10 328 3 106 159 134 117 91 47 26 18 19 17 15 12 10 9 5 2 356 356 356 357 0 1 358 330 299 320 324 317 196 222 206 211 218 247 288 310 354 343 350 335 355 358 339 340 339 337 336 331 336
20 12 48 63 64 61 49 41 44 34 34 42 44 61 60 65 63 70 90 103 117 61 40 97 118 94 39 17 325 348 357 342 1 359 358 6 356 33 154 139 120 67 41 33 31 25 20 15 10 7 6 4 357 352 353 354 353 352 350 351 350 334 318 299 216 224 213 214 219 221 241 275 269 280 287 328 335 330 333 338 333 324 308 317 330
35 33 30 44 56 66 57 46 41 32 42 54 58 60 69 68 64 53 52 114 117 82 17 31 120 129 112 227 275 342 341 344 351 11 13 7 0 1 40 3 67 70 30 36 37 30 22 14 11 7 6 4 2 356 353 352 351 346 344 348 342 340 339 323 311 242 215 213 227 228 229 240 263 259 277 305 313 303 304 285 307 321 324 317 301
46 50 47 46 39 62 62 45 37 25 23 27 63 61 61 48 45 27 13 28 57 29 15 341 14 105 142 70 7 317 322 351 8 37 20 8 9 22 7 16 45 25 22 40 31 27 18 13 9 7 5 5 2 359 357 354 354 349 344 339 337 340 339 342 355 347 228 219 229 232 231 243 253 258 267 275 289 308 316 320 315 303 305 304 303
49 55 53 56 45 39 49 38 23 30 36 27 34 28 36 31 8 28 351 18 51 45 17 10 15 17 22 4 9 9 11 346 54 52 32 14 12 26 20 27 26 17 16 31 27 20 21 15 13 13 14 11 6 1 358 356 354 352 348 345 343 338 336 339 345 356 338 257 238 245 248 255 254 254 259 268 283 291 301 296 295 301 300 303 299
53 57 56 49 47 36 33 26 27 25 42 34 44 42 41 38 30 20 18 29 20 22 22 22 21 14 2 10 0 10 1 16 52 49 31 22 34 31 37 31 20 15 16 35 10 9 11 8 11 13 14 11 7 4 2 359 356 353 350 347 346 342 339 341 339 343 353 349 334 329 314 282 262 257 251 262 252 252 261 281 303 306 303 300 300
45 56 61 55 56 53 36 27 32 44 41 36 40 44 40 44 34 28 33 28 20 14 13 12 7 5 343 355 0 11 13 42 45 47 39 44 34 36 46 33 27 22 17 20 19 7 5 4 7 6 6 3 0 359 1 0 359 356 353 350 346 345 345 343 341 340 343 339 329 323 323 324 299 262 257 247 250 253 249 276 281 277 275 289 296
48 51 60 56 53 55 48 41 41 55 48 43 47 41 48 50 42 35 37 29 24 13 8 3 350 334 327 346 345 43 47 44 45 45 54 50 29 42 53 41 38 25 18 31 19 8 7 5 6 6 0 353 355 354 355 354 355 353 354 355 353 352 351 348 344 342 340 336 331 323 321 317 322 295 263 254 253 265 296 298 283 278 290 288 286
54 54 64 61 62 62 54 43 41 51 55 47 43 36 45 50 58 49 39 31 22 10 354 345 330 311 308 326 40 64 52 44 45 46 68 58 37 52 52 40 31 26 27 35 25 17 16 11 9 2 358 356 357 355 354 353 353 352 351 353 349 347 349 349 346 344 342 339 336 332 327 322 319 314 298 290 282 265 269 270 272 272 279 281 280
58 55 63 62 59 54 52 43 45 51 53 45 37 26 29 40 55 47 43 40 22 6 346 331 321 310 297 136 74 59 49 33 39 46 58 54 52 56 45 27 21 14 15 23 18 19 22 21 7 358 352 351 354 357 356 357 357 355 351 348 347 346 347 348 348 346 344 341 338 335 330 326 321 319 315 306 298 303 306 273 284 285 272 277 278
54 56 57 57 58 54 57 48 44 47 48 44 33 30 24 40 57 55 44 30 25 11 360 349 329 323 348 64 74 84 47 20 45 45 39 35 62 60 55 36 31 10 12 25 14 7 22 21 6 354 349 348 349 349 352 357 357 354 351 352 352 351 349 348 347 346 344 341 338 334 330 326 323 318 314 310 309 308 305 306 289 273 279 278 276
37 43 50 51 52 50 51 48 44 47 50 47 40 36 35 31 33 65 55 39 23 10 1 351 23 3 5 62 67 82 78 40 31 44 33 53 55 60 61 50 34 19 2 25 18 1 16 21 5 352 348 349 344 346 345 348 350 354 357 357 356 353 351 348 347 346 345 343 339 337 334 330 327 323 318 315 312 306 304 299 299 302 282 268 270
41 41 45 46 48 48 47 48 45 47 51 48 42 37 34 32 28 26 49 64 39 13 8 12 23 13 343 339 42 7 35 42 27 1 20 50 62 58 62 57 35 14 2 23 23 1 7 22 1 351 344 344 343 339 344 343 343 351 359 360 357 355 356 353 353 352 350 347 344 342 339 336 333 329 326 323 317 312 307 302 300 295 296 292 275
47 45 48 45 47 51 47 46 49 47 50 45 41 40 31 30 29 34 4 30 62 26 27 35 17 333 304 68 2 38 351 17 359 7 12 32 35 40 57 52 32 14 3 12 20 1 7 18 1 345 337 340 338 335 338 339 338 352 359 357 354 357 357 356 358 359 357 353 351 348 344 341 337 333 329 325 322 319 314 309 304 301 299 295 295
49 48 50 47 46 48 47 45 44 43 49 49 40 35 29 26 24 26 24 33 19 18 28 27 32 13 17 9 325 61 360 354 343 310 13 13 12 17 36 38 25 16 359 6 12 357 8 17 357 339 330 332 333 329 337 336 337 347 350 353 341 358 357 358 360 360 358 357 355 353 349 345 341 336 333 329 325 321 318 315 311 307 302 300 297
51 51 51 50 48 47 48 46 45 40 44 50 49 42 35 32 29 31 31 38 31 20 14 24 28 30 55 21 3 28 27 294 327 292 10 347 6 354 22 22 21 11 349 357 5 348 7 9 351 333 325 327 329 325 333 336 337 330 344 342 348 359 359 357 356 353 351 350 351 352 348 343 339 336 333 330 327 324 321 317 314 311 306 303 298
48 46 46 46 46 45 48 51 49 45 44 50 52 45 35 33 25 38 30 24 50 38 26 8 26 24 28 64 98 92 319 307 48 318 354 317 10 335 354 18 14 346 346 360 349 337 358 1 342 329 324 323 327 328 348 345 338 335 329 343 358 357 357 355 352 348 343 340 339 339 337 335 332 330 328 327 326 325 321 318 314 311 309 305 300
49 49 49 48 51 48 50 53 55 52 47 50 47 42 38 33 24 35 38 31 33 50 37 11 2 18 14 16 20 16 5 25 353 316 331 325 13 330 4 8 354 339 351 348 333 339 339 341 333 324 320 321 328 338 4 347 341 341 335 350 350 350 349 350 347 341 336 333 332 332 331 330 328 325 324 324 323 321 319 318 316 312 309 306 303
56 51 50 49 50 50 49 51 53 48 51 54 52 46 46 36 35 33 37 41 39 46 33 25 48 352 2 12 11 2 5 34 51 29 297 307 321 330 9 352 347 340 358 334 341 339 327 320 320 321 318 323 326 357 8 347 334 341 343 3 358 352 349 347 342 335 331 328 327 327 326 325 324 324 322 321 320 319 318 315 314 313 310 307 304
54 56 49 49 48 51 49 52 50 46 46 50 48 46 48 47 37 33 32 32 41 39 45 22 35 23 6 7 11 7 353 17 47 13 342 325 300 347 329 340 343 344 341 337 342 328 316 306 299 307 313 320 319 9 0 345 332 344 350 0 350 345 344 340 333 329 326 324 322 321 320 319 320 321 321 320 317 316 314 313 311 310 308 307 305
51 50 55 51 54 52 52 51 51 47 44 42 46 46 40 44 46 45 38 39 30 40 41 24 27 18 30 21 21 3 4 10 13 5 340 13 333 325 331 332 335 338 323 342 334 318 316 313 306 301 303 307 319 357 351 340 322 339 332 353 349 340 335 331 328 327 325 323 321 320 319 318 318 318 319 319 317 314 311 310 309 308 307 306 304
59 50 52 49 50 53 56 53 51 51 49 42 35 45 45 45 45 44 44 42 34 37 30 28 24 21 15 24 22 27 12 28 347 352 359 321 328 304 318 315 320 319 326 329 309 299 313 321 314 297 294 299 315 339 335 323 317 317 348 353 343 336 330 328 326 325 323 320 319 319 318 318 318 317 317 316 315 313 310 309 308 307 307 306 303
61 59 47 46 52 53 52 57 52 46 45 41 35 34 49 44 44 47 41 34 32 43 34 30 25 14 12 8 10 7 4 30 3 350 351 320 326 307 311 314 295 242 306 310 296 301 329 307 317 324 311 312 317 327 329 324 317 329 347 340 336 330 327 325 324 322 320 318 318 317 317 317 317 315 313 312 312 310 309 309 308 307 306 305 304
60 66 54 52 58 58 53 51 47 41 40 41 35 30 41 51 44 46 46 36 28 41 48 25 33 24 359 350 6 356 344 3 20 2 341 346 339 320 302 313 305 310 299 309 307 328 281 310 339 339 338 321 322 334 341 340 339 341 339 332 331 329 326 323 320 319 316 316 316 315 316 315 314 313 311 310 308 308 308 307 307 306 305 304 304
82 70 72 68 58 60 62 58 54 50 42 36 39 33 33 59 49 49 50 30 21 29 48 37 29 10 5 13 349 341 335 10 13 10 344 358 340 336 319 316 290 297 305 308 307 339 301 340 322 331 307 317 345 357 352 341 338 329 330 330 328 326 324 321 318 316 314 313 313 314 314 312 310 309 308 307 307 307 307 306 306 305 304 303 302
82 78 65 76 75 69 63 61 55 53 47 39 32 30 24 49 50 41 47 49 6 29 25 40 25 3 360 22 341 337 350 2 20 350 2 356 353 329 347 334 327 328 328 324 324 325 308 314 318 296 311 3 359 346 328 325 325 334 338 332 323 322 323 319 316 314 314 314 313 312 310 309 308 307 307 306 306 305 305 305 305 304 304 302 301
82 81 64 63 73 78 70 65 62 56 56 51 41 30 17 60 45 52 34 14 3 17 49 42 16 6 26 3 12 338 345 12 10 1 355 347 338 338 341 338 327 319 321 300 320 302 328 327 325 328 349 336 337 329 332 338 340 337 329 325 330 330 328 321 317 317 315 312 309 308 307 307 307 307 307 306 305 303 303 303 302 301 300 300 298
95 84 76 64 67 78 84 78 67 64 57 48 39 27 20 64 60 69 43 2 6 14 53 58 12 22 8 16 352 347 347 16 6 354 338 328 331 329 330 335 327 317 314 311 305 305 313 313 298 315 339 337 330 337 336 336 333 334 336 342 336 328 322 320 318 313 309 308 309 308 308 307 306 305 304 305 305 304 303 303 303 301 300 299 299
96 94 94 89 75 77 86 87 75 67 70 51 42 24 36 40 46 76 65 28 14 3 21 67 15 36 359 3 347 353 343 16 353 334 327 327 336 336 338 332 334 302 285 302 298 298 288 283 284 314 331 337 333 327 332 329 332 342 337 332 329 322 322 321 317 314 312 310 309 310 308 306 305 305 305 305 305 305 304 302 302 301 300 300 299
91 90 89 87 91 90 86 81 84 77 65 67 51 29 45 46 33 47 31 28 19 351 341 56 358 45 353 347 337 341 339 4 339 327 325 330 322 321 315 314 303 286 285 284 298 281 300 305 299 355 319 321 334 322 317 319 330 338 336 332 328 324 324 319 318 318 317 316 313 308 306 307 307 306 306 305 303 303 303 303 302 301 300 299 299
94 93 96 94 94 98 91 84 77 75 65 51 47 32 42 48 42 51 10 22 15 353 338 358 358 19 13 339 316 319 312 359 327 317 317 311 307 306 298 288 281 276 273 281 269 284 296 293 297 312 326 312 325 314 307 321 335 338 328 325 324 324 321 318 317 319 317 315 313 310 309 308 306 306 306 304 303 302 302 302 302 301 300 300 299
106 98 91 97 96 96 88 83 77 72 67 51 41 40 45 38 18 62 21 7 6 330 349 338 339 41 351 328 306 298 311 351 312 308 304 297 298 300 292 289 286 278 284 276 280 286 292 286 291 307 327 323 309 319 327 324 327 322 315 315 317 315 314 313 315 315 316 315 315 316 318 317 314 310 307 306 305 303 301 301 300 300 299 299 298
98 104 100 89 80 81 86 77 74 72 61 68 53 47 53 29 15 14 38 8 351 338 353 344 339 349 357 329 308 305 308 308 299 299 291 292 297 295 290 291 288 288 276 280 279 281 289 303 300 307 321 313 302 332 331 316 310 312 309 309 309 305 307 309 309 308 311 313 316 318 318 317 316 315 313 309 307 306 304 303 302 301 301 300 300
89 92 96 88 78 80 84 88 88 81 81 79 39 87 34 61 16 359 3 11 343 329 336 319 322 316 339 313 299 299 306 321 297 291 290 290 285 290 294 295 287 284 280 271 282 286 291 292 300 310 316 320 307 315 313 299 299 304 302 302 307 308 302 301 299 297 307 314 315 315 317 318 319 318 316 314 311 309 309 308 306 303 301 300 300
110 102 92 86 92 104 106 105 110 108 82 84 78 50 105 65 49 339 342 346 331 315 297 292 297 310 294 296 290 299 306 295 285 288 289 286 299 299 296 293 294 293 290 283 275 286 293 294 298 307 318 321 308 302 304 302 301 301 298 297 298 294 294 294 295 302 308 309 310 314 317 317 317 319 318 316 314 312 310 308 306 304 301 299 297
115 116 111 109 115 116 111 113 114 133 131 126 132 39 22 43 50 334 299 292 299 289 281 275 279 284 281 270 274 285 288 288 285 286 285 296 290 304 305 305 303 301 305 303 294 286 287 287 295 302 314 304 298 301 310 311 307 299 293 292 291 290 290 289 296 295 295 300 304 308 311 313 316 318 320 319 318 318 318 316 313 310 308 307 306
126 124 134 139 139 127 131 128 123 123 144 143 145 189 208 338 345 307 284 273 273 281 283 282 280 279 271 273 273 280 282 277 279 278 283 288 311 313 310 307 305 304 298 297 294 292 288 288 293 302 309 313 311 300 308 306 304 306 301 291 284 283 292 298 289 288 287 287 300 296 298 303 309 317 318 316 315 316 316 314 312 310 309 311 312
137 139 129 119 134 138 154 127 138 140 113 225 209 226 208 252 248 261 281 304 306 305 285 274 273 269 271 270 272 268 271 271 274 279 281 299 307 298 292 297 300 298 296 292 297 298 295 296 297 298 304 308 311 309 310 301 292 291 300 305 300 292 289 289 296 287 287 289 284 291 295 305 312 314 312 311 310 310 310 311 310 309 308 308 307
143 142 147 146 156 127 198 126 166 125 224 257 257 216 74 40 9 342 343 329 310 296 293 295 289 284 280 279 272 271 266 266 267 271 282 291 282 276 279 291 298 305 305 305 305 303 302 300 298 304 304 306 309 302 303 305 302 290 281 302 303 306 302 290 287 300 300 294 297 290 287 297 299 303 305 303 302 304 307 308 307 306 304 303 303
137 128 134 135 147 148 165 163 216 247 194 243 231 109 66 18 10 328 310 298 292 292 293 294 296 291 284 273 267 265 267 272 283 287 290 293 296 297 287 273 283 289 294 294 294 299 298 296 298 300 301 303 305 309 310 308 307 306 305 297 290 291 293 294 289 284 290 296 293 290 293 303 308 304 299 298 298 304 303 305 304 301 296 298 300
139 139 136 139 157 179 183 208 194 212 231 226 219 185 175 161 245 266 282 281 284 286 291 293 286 279 278 277 276 283 291 295 295 296 295 297 299 299 298 297 291 291 289 290 288 288 291 292 296 303 301 299 304 307 302 298 296 297 295 294 291 295 295 289 286 275 283 290 295 299 299 309 302 300 298 294 298 302 302 302 295 299 304 307 308
150 145 141 160 162 203 192 208 224 211 213 225 221 213 219 234 245 257 265 272 274 275 275 267 271 277 279 279 278 285 293 295 293 292 296 301 302 302 301 301 301 300 300 297 291 289 288 284 286 284 279 283 287 296 297 294 292 290 293 294 292 295 294 301 301 295 224 298 302 300 298 308 300 295 293 295 300 299 299 294 302 306 306 307 307
156 142 156 171 183 202 202 211 218 229 227 227 224 221 233 242 245 246 251 261 266 269 268 270 271 278 283 283 279 283 286 287 291 299 302 299 300 303 305 304 303 301 294 290 291 289 280 278 281 278 276 276 282 288 297 291 288 286 284 286 288 287 291 288 286 289 304 309 297 300 297 301 290 286 290 296 295 293 294 302 305 305 305 306 307
155 168 180 172 198 195 193 216 229 232 218 240 233 234 240 247 250 256 257 257 262 262 268 272 275 273 274 282 287 288 292 304 307 302 292 289 295 299 301 299 295 291 290 288 285 284 286 284 285 285 277 281 284 288 279 279 277 280 285 283 281 282 278 281 282 288 295 308 299 294 291 302 299 291 291 292 286 289 292 296 301 304 305 304 304
176 176 172 183 180 195 199 211 229 240 235 241 242 243 247 250 253 258 254 257 260 263 264 271 273 277 288 296 296 292 284 288 291 291 288 280 279 278 275 266 257 263 270 277 280 283 281 276 274 273 271 258 267 272 273 275 277 277 279 279 280 281 280 277 282 284 291 299 290 293 287 298 295 293 291 293 290 287 286 294 303 304 303 304 305
179 184 180 175 183 188 202 212 233 245 247 246 246 249 251 256 262 264 260 259 259 262 266 265 269 275 280 279 281 283 288 289 279 289 286 283 277 273 271 270 265 267 258 250 258 260 256 260 259 264 272 272 269 272 275 275 268 271 275 277 280 282 282 283 279 277 281 255 255 287 293 299 295 290 289 297 293 291 290 296 299 302 304 305 304
179 167 170 158 183 184 191 206 231 247 252 252 252 253 257 259 263 259 251 257 259 267 269 265 264 257 256 263 268 278 278 273 282 294 293 290 282 278 278 279 277 270 267 262 277 285 284 275 265 263 268 281 287 287 292 292 292 293 287 285 286 288 290 292 290 295 284 287 275 282 283 286 293 289 295 299 295 290 296 293 299 302 303 303 304
182 183 181 173 169 174 194 204 214 245 254 258 258 255 257 255 252 200 242 246 256 259 264 269 266 266 263 254 255 261 273 276 287 293 294 296 289 290 293 287 283 287 292 296 304 307 308 306 305 304 303 304 305 304 304 305 306 309 309 302 297 303 294 296 293 295 290 299 255 260 280 286 293 295 298 299 295 293 296 294 292 296 299 306 316
186 186 169 163 169 173 191 208 212 225 252 255 253 259 256 249 238 201 215 235 254 257 259 264 264 259 263 281 280 279 283 278 283 292 297 301 295 291 286 296 310 314 313 318 316 307 302 299 302 305 305 305 304 304 305 304 303 304 300 296 302 300 290 286 289 292 293 291 283 264 274 274 295 297 298 293 290 272 274 273 287 293 317 322 313
177 163 164 164 179 188 197 206 221 224 247 259 260 262 255 247 237 216 219 229 243 255 253 255 266 264 270 273 277 278 278 285 293 299 301 301 294 300 321 321 315 311 311 310 300 299 314 327 316 313 306 305 305 305 304 306 308 309 304 294 294 286 285 286 285 291 290 280 262 139 286 289 293 291 303 307 291 267 259 279 301 320 306 305 309